Terminal Aerodrome Forecast
Issued by NWS

Home | Current Version | Previous Version | Text Only | Print | Product List | Glossary Off
Versions: 1 2 3 4 5 6 7 8 9 10 11 12 13 14 15 16 17

000
FTUS43 KBIS 022333
TAFDIK
TAF
KDIK 022333Z 0300/0324 29014KT P6SM SCT120 BKN150
     FM030100 32008KT P6SM BKN130
     FM030500 34011KT P6SM VCSH BKN070 OVC100
     FM031100 35010KT P6SM SCT100 BKN150
     FM031500 35012G17KT P6SM SCT180=

USA.gov is the U.S. government's official web portal to all federal, state and local government web resources and services.